Attalla, AL

8:30 AM CST on December 03, 2016 (GMT -0600)
Gadsden Municipal

Weather History for KGAD - November, 2011

Change the Weather History Date:

Thursday, November 10, 2011

  Actual Average Record
Temperature  
Mean Temperature 42 °F -  
Max Temperature 55 °F 62 °F 82 °F (1934)
Min Temperature 28 °F 40 °F 26 °F (2008)
Degree Days  
Heating Degree Days 24    
Moisture  
Dew Point 27 °F    
Average Humidity 54    
Maximum Humidity 81    
Minimum Humidity 30    
Precipitation  
Precipitation 0.00 in - - ()
Sea Level Pressure  
Sea Level Pressure 30.14 in    
Wind  
Wind Speed 8 mph (NW)    
Max Wind Speed 15 mph    
Max Gust Speed 23 mph    
Visibility 10 miles    
Events      
Averages and records for this station are not official NWS values.
T = Trace of Precipitation, MM = Missing Value Source: NWS Daily Summary

Daily Weather History Graph

Daily Weather History Graph

Search for Another Location

Airport or City:

Trip Planner

Search our weather history database for the weather conditions in past years. The results will help you decide how hot, cold, wet, or windy it might be!

Date:

Astronomy

Nov. 10, 2011 Rise Set
Actual Time 6:11 AM CST 4:44 PM CST
Civil Twilight 5:45 AM CST 5:10 PM CST
Nautical Twilight 5:15 AM CST 5:40 PM CST
Astronomical Twilight 4:46 AM CST 6:09 PM CST
Moon 4:34 PM CST (11/10) 6:01 AM CST (11/10)
Length of Visible Light 11h 24m
Length of Day
10h 32m
Full, 100% of the Moon is Illuminated
Nov 10
Full
Nov 10
Full
Nov 18
Last Quarter
Nov 25
New
Dec 2
First Quarter

Hourly Weather History & Observations

Time (CST) Temp. Windchill Dew Point Humidity Pressure Visibility Wind Dir Wind Speed Gust Speed Precip Events Conditions
12:15 AM 46.4 °F 42.9 °F 37.4 °F 71% 30.09 in 10.0 mi NNW 6.9 mph - N/A   Clear
12:35 AM 46.4 °F 42.4 °F 37.4 °F 71% 30.09 in 10.0 mi NNW 8.1 mph - N/A   Clear
12:55 AM 44.6 °F 43.1 °F 37.4 °F 76% 30.11 in 10.0 mi NW 3.5 mph - N/A   Clear
1:15 AM 44.6 °F 40.2 °F 37.4 °F 76% 30.11 in 10.0 mi NNW 8.1 mph - N/A   Clear
1:35 AM 44.6 °F 38.4 °F 37.4 °F 76% 30.09 in 10.0 mi North 12.7 mph 16.1 mph N/A   Clear
1:55 AM 44.6 °F 38.8 °F 35.6 °F 71% 30.09 in 10.0 mi NNW 11.5 mph - N/A   Clear
2:15 AM 44.6 °F 38.8 °F 35.6 °F 71% 30.10 in 10.0 mi North 11.5 mph 19.6 mph N/A   Clear
2:35 AM 44.6 °F 37.8 °F 35.6 °F 71% 30.11 in 10.0 mi North 15.0 mph 23.0 mph N/A   Clear
3:15 AM 42.8 °F 37.0 °F 33.8 °F 70% 30.11 in 10.0 mi North 10.4 mph 17.3 mph N/A   Clear
3:35 AM 42.8 °F 36.6 °F 33.8 °F 70% 30.11 in 10.0 mi North 11.5 mph 17.3 mph N/A   Clear
3:55 AM 42.8 °F 39.3 °F 33.8 °F 70% 30.12 in 10.0 mi North 5.8 mph - N/A   Clear
4:15 AM 41.0 °F 37.1 °F 32.0 °F 70% 30.13 in 10.0 mi North 5.8 mph - N/A   Clear
4:35 AM 41.0 °F 37.1 °F 32.0 °F 70% 30.14 in 10.0 mi NNW 5.8 mph - N/A   Clear
4:55 AM 41.0 °F 37.1 °F 32.0 °F 70% 30.14 in 10.0 mi North 5.8 mph - N/A   Clear
5:15 AM 39.2 °F 35.0 °F 32.0 °F 75% 30.14 in 10.0 mi North 5.8 mph - N/A   Clear
6:15 AM 39.2 °F 35.9 °F 32.0 °F 75% 30.14 in 10.0 mi NW 4.6 mph - N/A   Clear
6:35 AM 39.2 °F 37.0 °F 32.0 °F 75% 30.13 in 10.0 mi North 3.5 mph - N/A   Clear
6:55 AM 39.2 °F 35.9 °F 33.8 °F 81% 30.15 in 10.0 mi NNW 4.6 mph - N/A   Clear
7:15 AM 41.0 °F 38.0 °F 33.8 °F 76% 30.15 in 10.0 mi NNW 4.6 mph - N/A   Clear
7:35 AM 42.8 °F 39.3 °F 33.8 °F 70% 30.16 in 10.0 mi NNW 5.8 mph - N/A   Clear
7:55 AM 42.8 °F 38.6 °F 33.8 °F 70% 30.17 in 10.0 mi NNW 6.9 mph - N/A   Clear
8:35 AM 44.6 °F 39.7 °F 33.8 °F 66% 30.17 in 10.0 mi North 9.2 mph - N/A   Clear
8:55 AM 44.6 °F 39.2 °F 32.0 °F 61% 30.18 in 10.0 mi North 10.4 mph - N/A   Clear
9:15 AM 44.6 °F 39.2 °F 30.2 °F 57% 30.18 in 10.0 mi NNW 10.4 mph 16.1 mph N/A   Clear
9:35 AM 46.4 °F 40.7 °F 30.2 °F 53% 30.18 in 10.0 mi North 12.7 mph 18.4 mph N/A   Clear
9:55 AM 48.2 °F - 32.0 °F 54% 30.18 in 10.0 mi NW 12.7 mph 17.3 mph N/A   Clear
10:15 AM 48.2 °F - 30.2 °F 50% 30.18 in 10.0 mi North 11.5 mph - N/A   Clear
10:35 AM 48.2 °F - 30.2 °F 50% 30.18 in 10.0 mi North 11.5 mph 18.4 mph N/A   Clear
10:55 AM 51.8 °F - 30.2 °F 44% 30.17 in 10.0 mi NNW 12.7 mph 19.6 mph N/A   Clear
11:15 AM 51.8 °F - 30.2 °F 44% 30.16 in 10.0 mi North 12.7 mph - N/A   Clear
11:35 AM 51.8 °F - 28.4 °F 41% 30.14 in 10.0 mi North 15.0 mph 23.0 mph N/A   Clear
11:55 AM 53.6 °F - 30.2 °F 41% 30.13 in 10.0 mi North 12.7 mph 20.7 mph N/A   Clear
12:35 PM 53.6 °F - 28.4 °F 38% 30.11 in 10.0 mi NNW 13.8 mph 19.6 mph N/A   Clear
12:55 PM 55.4 °F - 28.4 °F 36% 30.12 in 10.0 mi NW 15.0 mph 21.9 mph N/A   Clear
1:15 PM 55.4 °F - 26.6 °F 33% 30.12 in 10.0 mi WNW 10.4 mph 23.0 mph N/A   Clear
1:35 PM 55.4 °F - 28.4 °F 36% 30.11 in 10.0 mi NW 13.8 mph 21.9 mph N/A   Clear
1:55 PM 55.4 °F - 28.4 °F 36% 30.11 in 10.0 mi NW 8.1 mph - N/A   Clear
2:15 PM 55.4 °F - 26.6 °F 33% 30.11 in 10.0 mi NNW 12.7 mph 18.4 mph N/A   Clear
2:35 PM 55.4 °F - 26.6 °F 33% 30.10 in 10.0 mi WNW 12.7 mph 19.6 mph N/A   Clear
3:16 PM 53.6 °F - 26.6 °F 35% 30.11 in 10.0 mi NW 12.7 mph 18.4 mph N/A   Clear
3:35 PM 53.6 °F - 26.6 °F 35% 30.10 in 10.0 mi WNW 13.8 mph 20.7 mph N/A   Clear
3:55 PM 51.8 °F - 21.2 °F 30% 30.10 in 10.0 mi WNW 10.4 mph 17.3 mph N/A   Clear
4:15 PM 51.8 °F - 21.2 °F 30% 30.10 in 10.0 mi WNW 11.5 mph 18.4 mph N/A   Clear
4:35 PM 50.0 °F - 19.4 °F 30% 30.11 in 10.0 mi NW 11.5 mph 20.7 mph N/A   Clear
4:55 PM 48.2 °F - 19.4 °F 32% 30.11 in 10.0 mi WNW 6.9 mph - N/A   Clear
5:15 PM 46.4 °F 43.5 °F 19.4 °F 34% 30.11 in 10.0 mi NW 5.8 mph - N/A   Clear
5:35 PM 46.4 °F 42.4 °F 19.4 °F 34% 30.12 in 10.0 mi WNW 8.1 mph - N/A   Clear
5:55 PM 46.4 °F 42.9 °F 19.4 °F 34% 30.12 in 10.0 mi WNW 6.9 mph - N/A   Clear
6:15 PM 44.6 °F 41.4 °F 19.4 °F 37% 30.13 in 10.0 mi WNW 5.8 mph - N/A   Clear
6:35 PM 42.8 °F 40.1 °F 19.4 °F 39% 30.13 in 10.0 mi West 4.6 mph - N/A   Clear
6:55 PM 41.0 °F 37.1 °F 21.2 °F 45% 30.14 in 10.0 mi West 5.8 mph - N/A   Clear
7:15 PM 41.0 °F 36.4 °F 19.4 °F 42% 30.14 in 10.0 mi West 6.9 mph - N/A   Clear
7:35 PM 41.0 °F 37.1 °F 19.4 °F 42% 30.15 in 10.0 mi WNW 5.8 mph - N/A   Clear
7:55 PM 42.8 °F 41.1 °F 19.4 °F 39% 30.16 in 10.0 mi WNW 3.5 mph - N/A   Clear
8:15 PM 42.8 °F 41.1 °F 19.4 °F 39% 30.17 in 10.0 mi WNW 3.5 mph - N/A   Clear
8:35 PM 42.8 °F 40.1 °F 19.4 °F 39% 30.17 in 10.0 mi WNW 4.6 mph - N/A   Clear
8:55 PM 42.8 °F 39.3 °F 19.4 °F 39% 30.18 in 10.0 mi NW 5.8 mph - N/A   Clear
9:15 PM 41.0 °F 38.0 °F 19.4 °F 42% 30.18 in 10.0 mi WNW 4.6 mph - N/A   Clear
9:35 PM 37.4 °F 33.8 °F 21.2 °F 52% 30.18 in 10.0 mi West 4.6 mph - N/A   Clear
9:55 PM 35.6 °F 32.8 °F 21.2 °F 56% 30.18 in 10.0 mi WNW 3.5 mph - N/A   Clear
10:15 PM 33.8 °F - 21.2 °F 60% 30.18 in 10.0 mi Calm Calm - N/A   Clear
10:35 PM 33.8 °F - 21.2 °F 60% 30.18 in 10.0 mi Calm Calm - N/A   Clear
10:55 PM 33.8 °F - 21.2 °F 60% 30.17 in 10.0 mi Calm Calm - N/A   Clear
11:15 PM 30.2 °F 26.7 °F 21.2 °F 69% 30.17 in 10.0 mi West 3.5 mph - N/A   Clear
11:35 PM 28.4 °F - 21.2 °F 74% 30.17 in 10.0 mi Calm Calm - N/A   Clear
11:55 PM 28.4 °F - 21.2 °F 74% 30.18 in 10.0 mi Calm Calm - N/A   Clear